Other Surface Observations
Issued by NWS Upton, NY

Home | Current Version | Previous Version | Text Only | Print | Product List | Glossary On
Versions: 1 2 3 4 5 6 7 8 9 10 11 12 13 14 15 16 17 18 19 20 21 22 23 24 25 26 27 28 29 30 31 32 33 34 35 36 37 38 39 40 41 42 43 44 45 46 47 48 49 50
000
SXUS51 KOKX 251757
OSOOKX
NEW YORK CITY METROPOLITAN AREA WEATHER ROUNDUP
National Weather Service New York NY
200 PM EDT MON JUL 25 2016


CITY           SKY/WX    TMP DP  RH WIND       PRES   REMARKS
Central Park   SUNNY     93  71  48 S3        29.90F HX 100
LaGuardia APRT MOSUNNY   92  72  51 SE8       29.87F HX  99
Kennedy INTL   PTSUNNY   84  71  65 S9        29.90F
Newark Liberty PTSUNNY   95  69  42 W10       29.87F HX 100
Teteboro APRT  SUNNY     91  71  51 SE8G18    29.85F HX  97
BNX BOT. GARD.   N/A     90  68  48 E1        29.89F HX  93
Wall St Helipt CLEAR     88  73  62 W6        29.89F HX  96

>>>>>>>>>>>>>>>>>>>>>>>>>>>>>>>>> KEY <<<<<<<<<<<<<<<<<<<<<<<<<<<<<<<
> SKY/WX - SKY CONDITION/           : R : WCI - WIND CHILL INDEX    <
>          PRESENT WEATHER          : E : VSB - VISIBILITY IN MILES <
> TMP    - TEMPERATURE IN DEG F     : M : HX  - HEAT INDEX          <
> DP     - DEW POINT TEMPERATURE    : A : TC  - TEMPERATURE IN      <
> RH     - RELATIVE HUMIDITY        : R :       CELSIUS             <
> WIND   - DIRECTION/SPEED (MPH)    : K : VRB - VARIABLE WIND  DIR  <
> PRES   - PRESSURE (IN HG)         : S :                           <
>>>>>>>>>>>>>>>>>>>>>>>>>>>>>>>>> KEY <<<<<<<<<<<<<<<<<<<<<<<<<<<<<<<




USA.gov is the U.S. government's official web portal to all federal, state and local government web resources and services.